Wind_Speed
40 37 38 39 39 38 38 37 36 36 38 40 38 37 38 39 44 51 49 54 53 50 46 45 45 42 39 38 32 31 34 29 21 16 10 30 31 25 29 30 27 26 25 22 23
44 40 39 42 43 41 38 37 36 38 40 39 40 40 42 44 46 49 52 53 52 47 43 45 44 44 42 38 35 35 34 26 20 12 22 23 30 24 27 32 25 27 28 21 26
41 43 42 41 43 42 40 38 38 38 39 41 41 41 44 47 53 48 46 47 47 45 43 45 44 46 44 41 36 35 33 26 24 17 31 24 28 25 27 30 28 26 25 23 23
46 45 44 43 43 42 40 41 39 40 40 41 42 43 46 51 48 43 46 47 43 43 42 43 43 44 43 39 35 35 32 30 25 30 26 25 25 24 26 29 28 20 20 23 22
46 46 44 44 44 43 41 40 40 41 42 41 42 44 47 45 44 45 45 39 39 41 42 45 46 42 40 38 35 36 33 31 27 29 27 24 25 24 23 27 28 16 18 20 21
47 47 45 45 43 42 40 39 41 42 42 42 43 45 43 41 44 42 43 37 39 40 44 45 42 42 40 39 39 34 33 31 30 29 26 24 23 25 21 26 25 19 21 19 18
49 47 44 42 41 40 41 41 41 42 41 42 43 42 37 40 43 40 39 37 38 38 43 42 49 47 42 42 39 38 38 34 30 26 25 22 22 20 21 24 21 19 20 19 15
47 47 46 42 40 40 41 42 42 41 41 44 41 40 36 39 39 40 39 36 37 39 43 41 44 45 46 42 41 39 36 31 24 28 21 22 16 19 20 19 16 19 18 20 16
45 45 44 41 42 41 41 42 43 43 43 42 39 39 39 38 36 36 39 36 34 40 44 42 52 49 43 38 37 36 32 27 26 23 22 23 15 17 19 18 16 19 19 18 19
44 43 42 42 43 43 43 43 45 43 42 40 39 39 37 38 34 34 36 36 31 34 39 40 54 47 43 43 42 33 29 26 21 16 18 22 18 16 19 20 16 18 19 17 19
44 43 44 43 42 43 43 45 45 43 41 39 40 40 41 35 34 35 36 37 29 32 39 41 49 51 46 43 36 35 31 20 17 13 18 25 18 17 20 19 18 18 16 19 20
45 45 44 43 44 45 46 44 44 43 39 39 39 38 35 34 33 34 35 36 31 32 36 39 48 45 45 45 43 39 35 29 15 16 22 31 22 21 20 17 17 17 19 16 21
46 46 44 45 44 46 46 47 43 41 41 40 39 37 34 31 33 34 31 32 30 31 39 36 45 48 51 48 44 40 37 31 31 28 20 28 21 20 20 18 18 16 15 18 18
44 45 45 46 44 44 45 44 42 41 40 40 38 34 32 29 31 30 29 30 31 26 37 36 41 47 50 45 43 41 32 28 31 30 29 16 20 17 19 20 18 18 14 16 16
46 45 45 46 45 45 44 43 41 38 38 40 37 32 29 26 26 25 27 28 31 22 31 39 41 41 50 48 42 41 29 32 32 35 31 31 24 16 16 15 16 20 18 16 14
51 48 48 46 46 45 43 43 41 39 40 38 34 31 30 28 25 26 25 26 27 24 26 32 39 40 47 49 47 42 37 37 38 38 40 30 28 25 16 11 16 20 24 21 17
55 53 52 48 47 46 45 42 41 39 38 38 32 31 28 28 26 24 24 23 21 26 18 24 35 44 44 49 47 48 43 38 40 43 41 27 30 26 16 17 18 24 24 19 21
59 57 56 52 49 48 46 44 45 40 37 39 33 32 29 27 25 24 23 23 21 20 22 16 30 38 43 50 49 47 46 42 41 33 26 26 35 25 18 23 27 28 22 23 21
63 61 57 55 51 50 48 48 44 39 41 40 32 33 30 28 22 24 24 24 21 17 17 21 18 29 37 37 46 48 47 40 21 27 28 32 27 21 23 28 21 24 26 25 22
58 57 53 53 52 52 52 48 44 42 43 35 33 33 30 28 23 23 24 24 21 21 17 18 16 24 26 33 39 43 41 41 42 33 27 23 21 21 24 26 21 20 22 23 25
48 50 49 50 51 53 53 47 45 44 42 37 33 34 33 30 27 23 27 27 25 24 22 18 20 18 24 36 32 35 39 42 44 43 31 28 27 29 27 27 26 28 28 27 28
44 41 46 48 51 51 47 45 46 42 42 36 34 34 33 32 30 26 27 30 25 24 21 22 22 20 15 21 18 34 37 39 40 36 34 38 27 23 24 28 27 25 25 29 24
42 37 40 42 45 48 45 45 47 44 41 36 35 35 33 33 31 28 27 29 26 26 25 24 24 19 17 20 17 21 33 39 42 34 31 33 30 25 36 37 31 28 32 33 33
38 37 36 41 42 41 42 44 45 42 38 37 36 36 35 34 32 30 29 30 26 25 28 28 24 23 17 17 24 18 18 29 38 34 36 33 32 40 37 35 40 36 37 30 29
35 31 33 28 40 42 41 37 33 40 37 36 37 36 35 34 32 32 30 31 30 28 31 29 26 27 27 20 27 24 16 20 36 33 30 37 35 32 28 28 31 42 36 29 31
35 30 30 32 27 26 35 38 37 22 29 34 34 32 31 30 30 28 31 32 33 31 34 30 32 29 29 27 30 26 27 28 28 31 32 23 31 36 26 12 30 38 32 30 31
32 30 33 33 31 31 25 28 36 33 25 24 28 28 29 24 28 31 32 32 34 33 36 33 34 34 29 32 35 29 32 30 18 24 29 29 26 26 35 34 39 32 36 39 31
Wind_Direction
284 284 283 284 288 290 283 277 275 272 271 276 279 284 285 286 288 285 288 288 286 280 267 254 250 247 242 240 240 240 241 244 240 248 291 272 262 278 282 289 283 275 273 283 289
282 280 284 286 288 290 283 277 275 272 272 277 281 285 287 286 286 287 286 288 284 274 264 254 248 242 236 233 232 234 239 237 237 204 252 250 267 269 278 292 285 279 276 276 288
279 278 278 279 282 286 282 277 275 275 275 278 280 286 289 285 284 288 287 284 274 264 259 255 246 240 233 229 226 231 235 235 217 221 238 232 255 273 283 290 284 288 290 286 282
279 279 278 277 279 281 279 277 277 275 277 280 283 287 287 286 296 301 297 288 274 261 256 255 247 242 238 233 228 233 231 230 230 238 235 240 253 261 275 288 283 291 286 285 286
276 278 279 278 276 275 275 274 274 274 276 279 283 284 284 291 296 306 305 290 270 252 250 248 241 238 236 231 228 228 228 229 227 235 245 243 253 257 270 283 281 284 283 281 283
275 274 273 273 275 276 275 272 274 274 277 280 281 283 284 291 300 310 310 284 272 248 247 249 228 235 231 229 226 223 230 227 227 239 239 247 250 255 267 279 282 278 280 281 272
277 277 275 273 274 275 276 274 273 273 275 277 278 281 290 293 299 307 312 287 269 251 246 245 245 227 223 225 224 222 225 220 226 235 242 247 246 255 262 276 280 275 275 281 270
273 273 273 272 274 275 274 275 276 276 276 276 281 286 292 291 300 304 311 299 270 251 243 246 241 230 228 222 222 221 228 228 228 234 234 247 242 250 258 271 277 276 277 282 270
274 272 273 273 273 273 274 274 274 275 274 276 283 286 287 290 298 302 307 310 276 250 240 244 238 219 225 225 224 224 226 227 232 242 243 244 239 247 255 263 274 279 280 284 273
271 269 268 268 270 270 270 270 272 271 276 280 284 286 285 289 296 302 305 313 277 253 243 248 227 215 216 219 219 218 226 228 239 233 268 249 249 250 261 263 268 275 284 286 282
273 271 271 269 267 266 266 269 269 266 277 279 282 278 282 285 292 298 303 311 285 249 243 241 228 219 213 218 220 217 216 213 233 235 238 263 243 247 247 261 275 271 283 286 287
274 274 272 271 270 269 269 268 268 271 275 283 284 282 281 286 291 293 300 311 290 254 241 241 236 212 215 218 216 216 221 198 213 223 236 227 242 245 248 254 264 276 288 276 287
274 273 270 268 268 268 268 270 271 272 275 278 281 280 282 284 284 290 296 307 297 255 238 235 219 212 216 213 215 216 217 216 208 213 242 249 244 238 250 250 257 266 273 289 287
276 275 273 270 268 269 268 268 268 273 276 276 277 282 282 281 282 287 291 301 307 243 220 223 220 222 225 215 212 219 221 224 222 220 219 248 241 243 247 248 254 255 266 277 282
275 273 272 271 270 269 268 269 271 272 276 280 282 284 283 280 279 285 288 295 305 263 219 220 223 226 230 214 211 219 215 220 228 236 228 225 235 222 216 240 268 273 264 262 277
276 275 272 270 270 269 265 265 267 268 272 272 279 281 277 274 275 277 285 288 299 316 233 223 221 222 225 211 209 211 215 220 225 231 232 225 235 234 230 244 231 237 261 275 274
274 270 268 268 266 265 264 262 262 263 267 271 277 275 275 273 272 269 273 280 286 306 304 231 228 218 222 218 213 216 211 218 227 234 241 232 238 239 219 205 213 227 250 254 267
274 269 265 262 261 260 259 257 256 259 264 265 269 273 271 270 271 267 271 274 278 289 310 280 230 230 220 221 217 217 213 216 227 241 252 231 240 240 237 225 226 241 256 256 259
273 268 264 260 256 255 254 253 256 256 253 260 268 266 268 269 264 271 270 275 280 280 283 301 266 222 221 225 222 219 217 212 204 226 231 239 245 245 225 241 244 240 244 251 257
271 264 259 253 252 250 249 250 251 253 256 256 258 261 259 258 258 260 266 269 272 275 269 272 301 243 214 222 227 221 218 205 204 212 210 192 206 212 243 245 240 233 239 248 252
270 260 248 246 244 245 246 247 248 249 252 253 253 254 254 253 253 250 254 260 264 270 268 272 276 291 239 228 218 217 210 214 212 216 210 182 198 202 190 218 225 240 242 249 258
267 264 250 244 244 242 243 243 242 242 247 246 246 248 250 253 252 247 245 255 259 265 262 258 261 269 276 238 242 222 203 212 213 214 217 208 204 229 221 215 226 235 245 240 241
265 260 250 244 246 243 238 237 239 240 241 243 242 244 246 248 250 248 249 251 255 253 255 252 255 264 264 222 233 224 220 201 209 207 207 217 210 212 229 231 222 223 239 243 240
258 254 248 244 243 242 241 236 237 239 237 237 238 238 240 242 243 243 244 250 256 254 256 254 247 241 248 228 217 229 235 212 207 201 209 216 210 211 220 214 227 227 237 240 246
258 256 249 247 243 244 241 239 243 237 236 235 237 238 238 239 239 241 240 243 253 250 248 247 245 237 229 236 208 215 225 210 213 207 223 219 209 215 224 239 229 221 232 241 241
252 249 251 247 230 238 238 237 238 233 242 233 236 240 241 240 241 243 245 248 249 249 245 238 247 245 233 232 234 210 202 206 225 231 224 212 221 230 230 217 213 220 237 246 245
248 253 261 247 237 223 225 235 235 232 226 229 233 236 240 238 248 249 249 248 248 245 241 231 215 232 235 234 230 230 219 204 190 212 220 223 238 239 239 237 240 256 249 244 252
Height
5764 5763 5763 5761 5760 5759 5758 5757 5755 5755 5755 5754 5753 5751 5751 5751 5748 5746 5746 5743 5743 5741 5744 5744 5747 5750 5752 5755 5758 5761 5761 5765 5769 5773 5777 5773 5770 5771 5769 5768 5767 5766 5765 5762 5760
5754 5752 5751 5751 5750 5750 5748 5747 5746 5746 5746 5745 5744 5742 5741 5741 5738 5736 5735 5733 5731 5731 5733 5736 5738 5740 5742 5746 5749 5751 5754 5761 5765 5767 5772 5771 5764 5766 5766 5763 5763 5762 5759 5759 5755
5744 5743 5741 5741 5740 5739 5739 5738 5737 5736 5736 5735 5734 5732 5731 5729 5726 5727 5722 5718 5719 5722 5725 5727 5729 5730 5733 5737 5741 5745 5748 5755 5756 5760 5760 5761 5760 5760 5760 5760 5759 5759 5756 5753 5753
5736 5735 5733 5732 5730 5729 5729 5730 5728 5727 5726 5725 5725 5724 5722 5720 5716 5715 5710 5708 5709 5712 5715 5718 5721 5724 5728 5732 5735 5737 5743 5746 5750 5752 5753 5754 5755 5756 5757 5757 5755 5754 5753 5749 5748
5724 5724 5723 5723 5721 5720 5720 5719 5719 5718 5718 5716 5716 5715 5714 5712 5709 5702 5699 5697 5698 5701 5705 5707 5709 5716 5721 5725 5727 5729 5735 5739 5743 5745 5747 5748 5750 5751 5753 5752 5750 5750 5749 5746 5744
5713 5713 5712 5712 5712 5711 5711 5709 5709 5709 5708 5707 5707 5706 5705 5704 5700 5694 5691 5688 5690 5692 5695 5699 5700 5709 5712 5717 5719 5724 5728 5733 5736 5740 5741 5742 5746 5745 5749 5748 5747 5746 5744 5742 5740
5702 5701 5701 5701 5701 5701 5702 5701 5700 5699 5697 5697 5698 5698 5698 5693 5690 5688 5683 5682 5682 5683 5687 5692 5692 5698 5703 5709 5714 5716 5719 5724 5729 5734 5736 5736 5740 5742 5744 5744 5743 5742 5741 5738 5737
5691 5690 5692 5691 5692 5692 5691 5694 5694 5691 5688 5689 5689 5690 5689 5685 5683 5679 5678 5674 5675 5676 5679 5683 5685 5692 5697 5701 5705 5710 5715 5720 5727 5728 5732 5731 5737 5737 5738 5739 5739 5738 5737 5736 5733
5680 5680 5681 5681 5682 5681 5682 5683 5684 5684 5680 5682 5682 5680 5680 5678 5675 5673 5670 5667 5665 5667 5671 5674 5675 5682 5692 5698 5702 5707 5711 5717 5721 5725 5726 5726 5731 5733 5733 5735 5735 5734 5733 5732 5730
5669 5668 5668 5670 5672 5672 5672 5672 5675 5674 5673 5673 5673 5674 5672 5669 5668 5667 5662 5661 5659 5659 5663 5666 5667 5675 5683 5688 5695 5704 5709 5713 5717 5722 5721 5722 5725 5728 5729 5730 5732 5731 5730 5728 5727
5658 5659 5660 5660 5661 5661 5663 5664 5665 5667 5666 5667 5665 5667 5664 5661 5661 5658 5656 5654 5652 5652 5656 5659 5660 5666 5677 5683 5691 5695 5700 5707 5715 5718 5718 5717 5720 5723 5725 5727 5727 5728 5728 5726 5723
5647 5649 5650 5649 5650 5652 5653 5653 5654 5655 5659 5656 5656 5656 5657 5653 5654 5651 5651 5648 5644 5643 5645 5650 5650 5662 5670 5677 5682 5687 5694 5698 5703 5710 5712 5712 5715 5717 5719 5723 5723 5723 5723 5724 5720
5637 5638 5637 5637 5639 5641 5642 5643 5644 5645 5647 5649 5649 5649 5648 5648 5647 5644 5645 5643 5637 5636 5637 5640 5649 5654 5661 5669 5675 5680 5686 5695 5697 5703 5706 5706 5710 5713 5715 5717 5719 5720 5721 5720 5718
5625 5627 5627 5628 5630 5630 5632 5632 5633 5637 5637 5639 5642 5642 5641 5640 5640 5638 5638 5637 5633 5631 5631 5635 5644 5648 5657 5663 5670 5675 5685 5689 5692 5694 5698 5702 5704 5707 5711 5713 5715 5716 5717 5717 5716
5613 5615 5615 5617 5618 5621 5622 5624 5626 5628 5629 5630 5632 5632 5634 5634 5633 5631 5632 5632 5630 5626 5628 5632 5637 5643 5649 5657 5662 5671 5678 5682 5685 5686 5692 5694 5698 5703 5706 5709 5710 5710 5712 5713 5712
5602 5603 5604 5605 5609 5610 5611 5613 5617 5622 5620 5622 5625 5626 5627 5626 5627 5626 5626 5626 5625 5622 5622 5625 5630 5634 5641 5647 5653 5662 5670 5673 5676 5678 5680 5690 5692 5695 5701 5706 5708 5710 5708 5708 5707
5587 5589 5591 5593 5595 5600 5601 5604 5609 5611 5613 5612 5618 5620 5620 5619 5619 5621 5622 5622 5622 5622 5617 5619 5624 5627 5634 5641 5648 5654 5661 5665 5669 5670 5675 5688 5687 5691 5697 5699 5701 5702 5703 5705 5703
5570 5573 5575 5580 5582 5585 5589 5593 5596 5602 5605 5604 5610 5611 5614 5613 5613 5615 5615 5616 5617 5618 5617 5614 5620 5623 5627 5632 5641 5647 5653 5659 5661 5669 5675 5683 5679 5687 5692 5693 5695 5697 5700 5699 5700
5551 5554 5560 5564 5568 5570 5574 5579 5588 5592 5593 5595 5602 5603 5607 5606 5608 5608 5609 5609 5610 5614 5615 5613 5614 5617 5622 5626 5633 5641 5645 5655 5662 5663 5667 5674 5678 5683 5686 5686 5690 5693 5694 5694 5696
5531 5536 5545 5544 5551 5553 5558 5569 5576 5579 5581 5588 5592 5595 5598 5598 5602 5602 5601 5603 5605 5606 5610 5611 5612 5613 5615 5620 5626 5633 5644 5644 5649 5654 5660 5668 5671 5677 5681 5682 5683 5685 5689 5690 5687
5514 5518 5526 5528 5532 5534 5545 5559 5564 5566 5572 5576 5582 5584 5589 5589 5593 5595 5595 5596 5599 5601 5603 5606 5608 5611 5611 5612 5620 5626 5630 5636 5643 5647 5655 5660 5666 5667 5668 5672 5675 5678 5679 5681 5683
5500 5506 5510 5514 5517 5522 5535 5546 5549 5553 5557 5564 5570 5574 5578 5580 5584 5586 5588 5587 5593 5595 5598 5601 5602 5606 5608 5611 5614 5619 5624 5630 5635 5642 5646 5654 5660 5658 5665 5666 5671 5673 5674 5674 5678
5489 5495 5499 5502 5505 5513 5523 5529 5535 5541 5546 5553 5558 5564 5568 5571 5575 5577 5580 5580 5585 5587 5590 5595 5598 5602 5605 5607 5608 5612 5618 5622 5630 5635 5640 5645 5654 5656 5656 5661 5663 5666 5667 5668 5668
5477 5483 5489 5491 5497 5503 5511 5517 5523 5529 5536 5541 5547 5553 5558 5561 5565 5569 5571 5572 5576 5581 5584 5587 5593 5597 5601 5602 5604 5606 5610 5617 5622 5627 5635 5637 5644 5643 5645 5649 5654 5655 5659 5661 5663
5468 5476 5478 5482 5488 5494 5501 5508 5513 5519 5525 5531 5536 5542 5547 5552 5556 5558 5561 5564 5567 5573 5575 5581 5586 5589 5594 5599 5599 5601 5606 5609 5616 5623 5625 5633 5634 5636 5637 5641 5645 5646 5648 5653 5654
5460 5466 5467 5475 5480 5485 5490 5498 5505 5512 5516 5523 5527 5532 5536 5541 5544 5547 5550 5555 5559 5564 5567 5574 5578 5582 5589 5592 5595 5598 5602 5606 5609 5614 5617 5621 5627 5629 5630 5633 5634 5637 5645 5645 5645
5451 5455 5456 5464 5469 5476 5483 5490 5496 5503 5510 5514 5519 5523 5527 5531 5534 5538 5542 5547 5551 5556 5560 5567 5572 5576 5580 5583 5588 5594 5599 5601 5602 5606 5609 5615 5620 5617 5621 5622 5623 5635 5633 5632 5640